Regional Weather Roundup
Issued by NWS Green Bay, WI

Home | Current Version | Previous Version | Text Only | Print | Product List | Glossary On
Versions: 1 2 3 4 5 6 7 8 9 10 11 12 13 14 15 16 17 18 19 20 21 22 23 24 25 26 27 28 29 30 31 32 33 34 35 36 37 38 39 40 41 42 43 44 45 46 47 48 49 50
000
ASUS43 KGRB 031811
RWRGRB

NORTH-CENTRAL AND NORTHEAST WISCONSIN REGIONAL WEATHER ROUNDUP
NATIONAL WEATHER SERVICE GREEN BAY WI
100 PM CDT FRI JUL 03 2015

WIZ005-009-010>012-018-019-031900-
NORTH CENTRAL WISCONSIN

CITY           SKY/WX    TMP DP  RH WIND       PRES   REMARKS
IRONWOOD       MOSUNNY   72  57  60 W10       29.86S
MANITOWISH WTR CLOUDY    69  56  63 SW10      29.92F
ARBOR VITAE    PTSUNNY   72  57  59 W10       29.93S
EAGLE RIVER    PTSUNNY   72  54  53 SW13      29.92F
LAND O LAKES   PTSUNNY   71  54  55 W10G16    29.92F
RHINELANDER    MOSUNNY   74  54  49 SW13G18   29.95S
PHILLIPS       MOSUNNY   71  55  56 SW9       29.94S
ANTIGO         PTSUNNY   69  57  64 SW7       29.96F
TOMAHAWK       MOSUNNY   71  55  56 SW6       29.95S
MERRILL        MOSUNNY   73  58  57 W10       29.95F
$$

WIZ013-073-031900-
NORTHEAST WISCONSIN

CITY           SKY/WX    TMP DP  RH WIND       PRES   REMARKS
IRON MOUNTAIN  MOSUNNY   74  55  51 SW8       29.90F
MARINETTE      SUNNY     72  54  53 W9        29.92F
OCONTO         SUNNY     73  55  51 W10       29.94F
$$

WIZ017-030-035>037-045-031900-
CENTRAL WISCONSIN

CITY           SKY/WX    TMP DP  RH WIND       PRES   REMARKS
MEDFORD        PTSUNNY   72  56  58 SW8       29.96S
WAUSAU         MOSUNNY   73  56  54 W7        29.95F
MOSINEE        MOSUNNY   72  57  60 SW10      29.98F
MARSHFIELD     MOSUNNY   74  56  53 W8        29.97F
WISC RAPIDS    MOSUNNY   73  51  46 CALM      29.98F
STEVENS POINT  MOSUNNY   70  51  52 NW3       29.97F
WAUPACA        SUNNY     76  52  42 NW7       29.97F
SHAWANO        SUNNY     75  52  44 W6        29.95F
CLINTONVILLE   SUNNY     73  50  43 W5        29.96F
$$

WIZ038-039-048-051-031900-
FOX VALLEY

CITY           SKY/WX    TMP DP  RH WIND       PRES   REMARKS
NWS GREEN BAY  SUNNY     74  56  53 SW10      29.96F
APPLETON       SUNNY     72  52  49 SW6       29.98F
OSHKOSH        SUNNY     73  53  49 SW5       29.97F
FOND DU LAC    SUNNY     74  55  51 S10       29.97F
$$

WIZ022-050-052-031900-
EAST CENTRAL WISCONSIN

CITY           SKY/WX    TMP DP  RH WIND       PRES   REMARKS
STURGEON BAY   SUNNY     70  54  56 SW12      29.97F
MANITOWOC      SUNNY     72  57  59 MISG      29.97S
SHEBOYGAN      MOSUNNY   74  55  51 SW7       29.97F
$$

LMZ563-521-522-541>543-031900-
LAKESHORE

STATION/POSITION TIME  TEMP    WIND        PRES    VSBY  WAVE
                       AIR SEA DIR/SP/G                  HT/PER
                 (UTC) (F)     (DEG/KT/KT) (MB)    (MI)  (FT/S)
SHEBOYGAN LKSHOR 1800   60     160/ 13/ 14 1015.1F
KEWAUNEE LKSHORE 1700   61     180/  9/ 11 1014.3F
ALGOMA MARINA    1741          210/ 12/ 14   N/A
NORTHPORT PIER   1700   70     180/  5/ 10 1013.9F
N MID LAKE BUOY  1750   50 44  200/ 10/ 12 1013.7F         1/ 3
S GREEN BAY BUOY 1730   68 68  210/ 12/ 14 1015.6
SISTER BAY LKSHO 1744   71     250/  9/ 11   N/A
STURGEON BAY CG  1750   62     180/ 10     1015.1      6   2
CHAMBERS ISLAND  1700   68     170/  6/ 10 1013.9F
MENOMINEE LKSHOR 1700   69     230/  9/ 12 1014.7F
$$


USA.gov is the U.S. government's official web portal to all federal, state and local government web resources and services.